Weather History for Moriarty, NM

Change the Weather History Date:

Monday, October 8, 2012

  Actual Average (KABQ) Record (KABQ)
Temperature  
Mean Temperature 49 °F 61 °F  
Max Temperature 74 °F 72 °F 89 °F (1979)
Min Temperature 24 °F 49 °F 30 °F (1976)
Degree Days  
Heating Degree Days 16 5  
Month to date heating degree days 31  
Since 1 July heating degree days 57  
Cooling Degree Days 0 0  
Month to date cooling degree days 7  
Year to date cooling degree days 1319  
Moisture  
Dew Point 22 °F    
Average Humidity 46    
Maximum Humidity 81    
Minimum Humidity 11    
Precipitation  
Precipitation 0.02 in 0.04 in 0.91 in (1919)
Month to date precipitation 0.32  
Year to date precipitation 7.68  
Snow  
Snow 0.00 in - - ()
Month to date snowfall  
Since 1 July snowfall  
Since 1 September snowfall  
Snow Depth -    
Sea Level Pressure  
Sea Level Pressure 30.15 in    
Wind  
Wind Speed 4 mph (WNW)    
Max Wind Speed 20 mph    
Max Gust Speed 28 mph    
Visibility 10 miles    
Events Thunderstorm    
T = Trace of Precipitation, MM = Missing Value Source: NWS Daily Summary

Daily Weather History Graph

Daily Weather History Graph

Search for Another Location

Airport:

Trip Planner

Search our weather history database for the weather conditions in past years. The results will help you decide how hot, cold, wet, or windy it might be!

Date:

Astronomy

Oct. 08, 2012 Rise Set
Actual Time 7:04 AM MDT 6:37 PM MDT
Civil Twilight 6:39 AM MDT 7:02 PM MDT
Nautical Twilight 6:10 AM MDT 7:32 PM MDT
Astronomical Twilight 5:40 AM MDT 8:01 PM MDT
Moon 12:01 AM MDT (10/8) 2:14 PM MDT (10/8)
Length of Visible Light 12h 23m
Length of Day
11h 32m
Last Quarter, 46% of the Moon is Illuminated
Oct 8
Last Quarter
Oct 15
New
Oct 21
First Quarter
Oct 29
Full
Nov 6
Last Quarter

Hourly Weather History & Observations

Time (MDT) Temp. Windchill Dew Point Humidity Pressure Visibility Wind Dir Wind Speed Gust Speed Precip Events Conditions
12:15 AM 33.1 °F - 25.0 °F 72% 30.19 in 10.0 mi Calm Calm - N/A   Clear
12:35 AM 31.3 °F - 24.1 °F 75% 30.19 in 10.0 mi Calm Calm - N/A   Clear
12:55 AM 30.9 °F - 23.9 °F 75% 30.18 in 10.0 mi Calm Calm - N/A   Clear
1:15 AM 30.0 °F - 22.3 °F 73% 30.19 in 10.0 mi Calm Calm - N/A   Clear
1:35 AM 30.6 °F - 23.7 °F 76% 30.19 in 10.0 mi Calm Calm - N/A   Clear
1:55 AM 30.6 °F - 23.4 °F 75% 30.19 in 10.0 mi Calm Calm - N/A   Clear
2:15 AM 28.9 °F 25.2 °F 22.3 °F 76% 30.19 in 10.0 mi NE 3.5 mph - N/A   Clear
2:35 AM 27.0 °F 20.5 °F 20.7 °F 77% 30.18 in 10.0 mi NNE 5.8 mph - N/A   Clear
2:55 AM 27.7 °F 23.8 °F 21.2 °F 77% 30.18 in 10.0 mi North 3.5 mph - N/A   Clear
3:15 AM 26.4 °F 22.4 °F 19.8 °F 76% 30.17 in 10.0 mi North 3.5 mph - N/A   Clear
3:35 AM 27.0 °F 21.6 °F 20.5 °F 77% 30.17 in 10.0 mi North 4.6 mph - N/A   Clear
3:55 AM 26.4 °F 20.9 °F 20.3 °F 78% 30.16 in 10.0 mi North 4.6 mph - N/A   Clear
4:15 AM 26.8 °F - 20.8 °F 78% 30.17 in 10.0 mi Calm Calm - N/A   Clear
4:35 AM 26.6 °F 22.6 °F 20.3 °F 77% 30.17 in 10.0 mi NNE 3.5 mph - N/A   Clear
4:55 AM 27.0 °F - 21.2 °F 79% 30.17 in 10.0 mi Calm Calm - N/A   Clear
5:15 AM 25.7 °F 20.1 °F 20.3 °F 80% 30.17 in 10.0 mi NNW 4.6 mph - N/A   Clear
5:35 AM 25.9 °F 21.7 °F 20.1 °F 79% 30.17 in 10.0 mi North 3.5 mph - N/A   Clear
5:55 AM 25.5 °F - 19.2 °F 77% 30.18 in 10.0 mi Calm Calm - N/A   Clear
6:15 AM 25.7 °F 21.5 °F 19.6 °F 78% 30.18 in 10.0 mi SSW 3.5 mph - N/A   Clear
6:35 AM 24.1 °F - 18.7 °F 80% 30.19 in 10.0 mi Calm Calm - N/A   Clear
6:55 AM 24.1 °F 19.7 °F 19.0 °F 81% 30.19 in 10.0 mi NNW 3.5 mph - N/A   Clear
7:15 AM 26.1 °F - 20.5 °F 79% 30.19 in 10.0 mi Calm Calm - N/A   Clear
7:35 AM 24.6 °F 20.3 °F 19.4 °F 81% 30.20 in 10.0 mi NNE 3.5 mph - N/A   Clear
7:55 AM 30.0 °F - 23.0 °F 75% 30.20 in 10.0 mi Calm Calm - N/A   Clear
8:15 AM 33.1 °F - 24.6 °F 71% 30.21 in 10.0 mi Calm Calm - N/A   Clear
8:35 AM 37.4 °F - 27.9 °F 68% 30.22 in 10.0 mi Calm Calm - N/A   Clear
8:55 AM 40.8 °F - 28.8 °F 62% 30.22 in 10.0 mi Calm Calm - N/A   Clear
9:15 AM 44.6 °F - 30.6 °F 58% 30.22 in 10.0 mi Calm Calm - N/A   Clear
9:35 AM 47.8 °F - 31.6 °F 53% 30.22 in 10.0 mi Calm Calm - N/A Thunderstorm Thunderstorm
9:55 AM 52.0 °F - 32.2 °F 47% 30.21 in - Calm Calm - N/A   Clear
10:15 AM 55.4 °F - 33.1 °F 43% 30.20 in 10.0 mi Calm Calm - N/A   Clear
10:35 AM 58.8 °F - 32.7 °F 37% 30.20 in 10.0 mi Calm Calm - N/A   Clear
10:55 AM 61.3 °F - 32.0 °F 33% 30.19 in 10.0 mi SE 3.5 mph - 0.02 in   Clear
11:15 AM 64.0 °F - 30.9 °F 29% 30.17 in - Calm Calm - N/A   Unknown
11:55 AM 68.9 °F - 23.9 °F 18% 30.16 in - SW 5.8 mph - N/A   Unknown
12:15 PM 71.8 °F - 16.9 °F 12% 30.15 in 10.0 mi NW 16.1 mph 19.6 mph N/A   Clear
12:35 PM 72.9 °F - 14.0 °F 11% 30.14 in 10.0 mi WNW 13.8 mph 23.0 mph N/A   Clear
12:55 PM 73.6 °F - 16.5 °F 11% 30.14 in 10.0 mi West 16.1 mph 24.2 mph N/A   Clear
1:15 PM 73.9 °F - 18.5 °F 12% 30.13 in 10.0 mi West 16.1 mph 27.6 mph N/A   Clear
1:35 PM 73.6 °F - 18.9 °F 13% 30.12 in 10.0 mi WNW 17.3 mph 21.9 mph N/A   Clear
1:55 PM 74.3 °F - 19.8 °F 13% 30.11 in 10.0 mi West 17.3 mph 26.5 mph N/A   Clear
2:15 PM 74.1 °F - 19.4 °F 13% 30.10 in 10.0 mi West 19.6 mph 26.5 mph N/A   Clear
2:35 PM 74.7 °F - 19.8 °F 13% 30.10 in 10.0 mi West 19.6 mph 25.3 mph N/A   Clear
2:55 PM 74.3 °F - 20.5 °F 13% 30.10 in 10.0 mi West 15.0 mph 24.2 mph N/A   Clear
3:15 PM 74.5 °F - 21.2 °F 14% 30.09 in 10.0 mi West 17.3 mph 26.5 mph N/A   Clear
3:35 PM 73.8 °F - 20.5 °F 13% 30.09 in 10.0 mi West 13.8 mph 25.3 mph N/A   Clear
3:55 PM 72.5 °F - 19.4 °F 13% 30.08 in 10.0 mi WNW 15.0 mph 21.9 mph N/A   Clear
4:15 PM 72.9 °F - 19.9 °F 14% 30.08 in 10.0 mi WNW 10.4 mph - N/A   Clear
4:35 PM 73.8 °F - 21.2 °F 14% 30.07 in 10.0 mi WNW 9.2 mph 17.3 mph N/A   Clear
4:55 PM 73.8 °F - 21.9 °F 14% 30.07 in 10.0 mi NW 11.5 mph - N/A   Clear
5:15 PM 73.4 °F - 22.1 °F 15% 30.07 in 10.0 mi WNW 9.2 mph - N/A   Clear
5:35 PM 72.9 °F - 22.3 °F 15% 30.07 in 10.0 mi NW 10.4 mph - N/A   Clear
5:55 PM 72.5 °F - 20.8 °F 14% 30.07 in 10.0 mi West 17.3 mph - N/A   Clear
6:35 PM 65.3 °F - 21.9 °F 19% 30.07 in 10.0 mi WNW 5.8 mph - N/A   Clear
7:35 PM 62.1 °F - 21.7 °F 21% 30.08 in 10.0 mi Calm Calm - N/A   Clear
8:15 PM 55.6 °F - 20.8 °F 26% 30.08 in 10.0 mi WSW 5.8 mph - N/A   Clear
8:35 PM 52.7 °F - 21.4 °F 29% 30.08 in 10.0 mi WSW 8.1 mph - N/A   Clear
8:55 PM 52.0 °F - 21.0 °F 30% 30.09 in 10.0 mi Calm Calm - N/A   Clear
9:15 PM 50.5 °F - 21.2 °F 32% 30.10 in 10.0 mi WSW 8.1 mph - N/A   Clear
9:55 PM 48.6 °F - 20.8 °F 34% 30.10 in 10.0 mi WSW 3.5 mph - N/A   Clear
10:35 PM 50.0 °F - 20.1 °F 31% 30.11 in 10.0 mi NNW 5.8 mph - N/A   Clear
10:55 PM 45.7 °F 44.4 °F 20.3 °F 37% 30.11 in 10.0 mi NNW 3.5 mph - N/A   Clear
11:15 PM 43.9 °F - 19.8 °F 38% 30.10 in 10.0 mi Calm Calm - N/A   Clear
11:35 PM 46.4 °F - 21.0 °F 37% 30.11 in 10.0 mi Calm Calm - N/A   Clear
11:55 PM 41.2 °F - 20.7 °F 44% 30.11 in 10.0 mi Calm Calm - N/A   Clear